User: anonymous   Login
Location: Unspecified
(0.0000°N, 0.0000°E)
Time: 15:52:24
(UTC+00:00)
Language:

AO-91 - Orbit

View from above orbital plane
View from above orbital plane
View from above satellite
View from above satellite

Ground track
Ground track

The orbit data is extracted from the following two-line orbital elements,

1 43017U 17073E   21267.67530816  .00001979  00000-0  15699-3 0  9996
2 43017  97.6952 167.6818 0253812 336.9355  22.0621 14.79763596207792
Epoch (UTC): 24 September 2021 16:12:26
Eccentricity: 0.0253812
inclination: 97.6952°
perigee height: 452 km
apogee height: 808 km
right ascension of ascending node: 167.6818°
argument of perigee: 336.9355°
revolutions per day: 14.79763596
mean anomaly at epoch: 22.0621°
orbit number at epoch: 20779

The dashed part of the orbit path shows where the satellite is in the earth's shadow,  

DLR